Weather History for Fremont, MI

Change the Weather History Date:

Friday, November 23, 2012

  Actual Average (KMKG) Record (KMKG)
Temperature  
Mean Temperature 42 °F 37 °F  
Max Temperature 53 °F 43 °F 67 °F (1999)
Min Temperature 30 °F 32 °F 4 °F (1956)
Degree Days  
Heating Degree Days 24 28  
Month to date heating degree days 541  
Since 1 July heating degree days 1164  
Cooling Degree Days 0 0  
Month to date cooling degree days 0  
Year to date cooling degree days 566  
Moisture  
Dew Point 26 °F    
Average Humidity 69    
Maximum Humidity 90    
Minimum Humidity 61    
Precipitation  
Precipitation 0.00 in 0.11 in 1.24 in (1983)
Month to date precipitation 2.62  
Year to date precipitation 30.20  
Snow  
Snow 0.00 in 0.30 in 4.30 in (1970)
Month to date snowfall 3.4  
Since 1 July snowfall 3.6  
Since 1 September snowfall 3.6  
Snow Depth -    
Sea Level Pressure  
Sea Level Pressure 29.85 in    
Wind  
Wind Speed 19 mph (West)    
Max Wind Speed 28 mph    
Max Gust Speed 37 mph    
Visibility 9 miles    
Events Snow    
T = Trace of Precipitation, MM = Missing Value Source: NWS Daily Summary

Daily Weather History Graph

Daily Weather History Graph

Search for Another Location

Airport:

Trip Planner

Search our weather history database for the weather conditions in past years. The results will help you decide how hot, cold, wet, or windy it might be!

Date:

Astronomy

Nov. 23, 2012 Rise Set
Actual Time 7:48 AM EST 5:12 PM EST
Civil Twilight 7:16 AM EST 5:44 PM EST
Nautical Twilight 6:41 AM EST 6:19 PM EST
Astronomical Twilight 6:07 AM EST 6:53 PM EST
Moon 2:33 PM EST (11/23) 2:59 AM EST (11/23)
Length of Visible Light 10h 27m
Length of Day
9h 24m
Waxing Gibbous, 79% of the Moon is Illuminated
Nov 23
Waxing Gibbous
Nov 28
Full
Dec 6
Last Quarter
Dec 13
New
Dec 20
First Quarter

Hourly Weather History & Observations

Time (EST) Temp. Windchill Dew Point Humidity Pressure Visibility Wind Dir Wind Speed Gust Speed Precip Events Conditions
12:14 AM 53.4 °F - 46.4 °F 77% 29.66 in 10.0 mi SSW 19.6 mph 27.6 mph N/A   Overcast
12:35 AM 53.2 °F - 46.6 °F 78% 29.66 in 10.0 mi South 17.3 mph 31.1 mph N/A   Overcast
12:54 AM 53.4 °F - 46.9 °F 79% 29.66 in 10.0 mi SSW 18.4 mph 29.9 mph N/A   Overcast
1:15 AM 52.9 °F - 47.1 °F 81% 29.66 in 10.0 mi SSW 19.6 mph 27.6 mph N/A   Overcast
1:54 AM 49.6 °F - 40.6 °F 71% 29.67 in 10.0 mi West 23.0 mph 31.1 mph N/A   Overcast
2:14 AM 46.8 °F - 38.5 °F 73% 29.69 in 10.0 mi West 21.9 mph 29.9 mph N/A   Overcast
2:34 AM 45.5 °F 38.3 °F 38.3 °F 76% 29.70 in 10.0 mi WSW 17.3 mph 31.1 mph N/A   Overcast
2:55 AM 43.9 °F 35.0 °F 36.0 °F 74% 29.72 in 10.0 mi West 23.0 mph 32.2 mph N/A   Overcast
3:14 AM 43.0 °F 36.0 °F 34.9 °F 73% 29.72 in 10.0 mi WSW 13.8 mph 25.3 mph N/A   Overcast
3:34 AM 42.8 °F 35.4 °F 34.2 °F 72% 29.72 in 10.0 mi WSW 15.0 mph 29.9 mph N/A   Overcast
3:55 AM 41.5 °F 33.2 °F 32.5 °F 70% 29.73 in 10.0 mi WSW 17.3 mph 28.8 mph N/A   Overcast
4:14 AM 40.3 °F 31.3 °F 31.6 °F 71% 29.73 in 10.0 mi WSW 18.4 mph 33.4 mph N/A   Overcast
4:35 AM 39.6 °F 29.0 °F 30.7 °F 71% 29.73 in 10.0 mi West 24.2 mph 32.2 mph N/A   Overcast
4:54 AM 39.4 °F 29.0 °F 31.1 °F 72% 29.73 in 10.0 mi WSW 23.0 mph 28.8 mph N/A   Overcast
5:14 AM 37.8 °F 26.6 °F 28.0 °F 68% 29.74 in 10.0 mi WSW 24.2 mph 35.7 mph N/A   Overcast
5:34 AM 37.8 °F 27.7 °F 28.2 °F 68% 29.74 in 10.0 mi WSW 19.6 mph 34.5 mph N/A   Overcast
5:54 AM 37.8 °F 28.3 °F 28.4 °F 69% 29.73 in 10.0 mi West 17.3 mph 26.5 mph N/A   Overcast
6:15 AM 37.9 °F 28.2 °F 28.2 °F 68% 29.74 in 10.0 mi WSW 18.4 mph 26.5 mph N/A   Overcast
6:34 AM 37.4 °F 25.4 °F 27.3 °F 67% 29.75 in 10.0 mi WSW 27.6 mph 36.8 mph N/A   Overcast
6:55 AM 37.0 °F 26.4 °F 26.1 °F 65% 29.75 in 10.0 mi West 20.7 mph 32.2 mph N/A   Overcast
7:14 AM 37.0 °F 27.4 °F 25.9 °F 64% 29.75 in 10.0 mi WSW 17.3 mph 27.6 mph N/A   Overcast
7:34 AM 37.0 °F 27.0 °F 26.2 °F 65% 29.75 in 10.0 mi WSW 18.4 mph 32.2 mph N/A   Overcast
7:55 AM 36.9 °F 26.2 °F 25.0 °F 62% 29.76 in 10.0 mi WSW 20.7 mph 34.5 mph N/A   Overcast
8:14 AM 36.3 °F 27.1 °F 25.5 °F 65% 29.76 in 10.0 mi West 15.0 mph 25.3 mph N/A   Overcast
8:34 AM 35.6 °F 24.0 °F 24.8 °F 65% 29.76 in 10.0 mi West 23.0 mph 31.1 mph N/A   Overcast
8:54 AM 34.3 °F 22.3 °F 24.6 °F 68% 29.77 in 10.0 mi West 23.0 mph 33.4 mph N/A   Overcast
9:14 AM 32.9 °F 21.0 °F 21.9 °F 64% 29.78 in 10.0 mi West 20.7 mph 35.7 mph N/A   Overcast
9:35 AM 32.0 °F 19.2 °F 21.7 °F 66% 29.80 in 10.0 mi West 23.0 mph 32.2 mph N/A   Overcast
9:54 AM 32.0 °F 20.8 °F 22.1 °F 67% 29.79 in 10.0 mi WSW 17.3 mph 27.6 mph N/A   Overcast
10:14 AM 32.0 °F 20.1 °F 21.7 °F 66% 29.80 in 10.0 mi West 19.6 mph 29.9 mph N/A   Overcast
10:34 AM 31.6 °F 19.7 °F 23.4 °F 71% 29.80 in 10.0 mi WSW 19.6 mph 31.1 mph N/A   Overcast
10:54 AM 30.9 °F 21.2 °F 25.5 °F 80% 29.80 in 7.0 mi WSW 12.7 mph 24.2 mph N/A   Overcast
11:15 AM 30.7 °F 19.6 °F 26.8 °F 85% 29.81 in 1.5 mi West 16.1 mph 23.0 mph N/A Snow Light Snow
11:34 AM 30.4 °F 20.0 °F 27.0 °F 87% 29.81 in 4.0 mi WSW 13.8 mph 25.3 mph N/A Snow Light Snow
11:54 AM 31.1 °F 20.1 °F 27.3 °F 86% 29.81 in 2.5 mi West 16.1 mph 26.5 mph N/A Snow Light Snow
12:15 PM 30.7 °F 19.6 °F 28.0 °F 90% 29.81 in 1.5 mi West 16.1 mph 23.0 mph N/A Snow Light Snow
12:34 PM 31.1 °F 18.6 °F 28.2 °F 89% 29.81 in 1.8 mi West 20.7 mph 26.5 mph N/A Snow Light Snow
12:55 PM 32.0 °F 20.1 °F 26.6 °F 80% 29.82 in 4.0 mi West 19.6 mph 27.6 mph N/A Snow Light Snow
1:14 PM 32.0 °F 20.5 °F 24.6 °F 74% 29.82 in 10.0 mi West 18.4 mph 33.4 mph N/A   Overcast
1:34 PM 32.4 °F 20.6 °F 24.1 °F 72% 29.83 in 10.0 mi West 19.6 mph 26.5 mph N/A   Overcast
1:54 PM 32.4 °F 20.9 °F 23.2 °F 69% 29.84 in 10.0 mi West 18.4 mph 28.8 mph N/A   Overcast
2:14 PM 32.7 °F 20.1 °F 23.0 °F 67% 29.84 in 10.0 mi West 23.0 mph 31.1 mph N/A   Overcast
2:34 PM 32.4 °F 19.4 °F 23.2 °F 69% 29.85 in 10.0 mi West 24.2 mph 29.9 mph N/A   Overcast
2:54 PM 32.2 °F 18.9 °F 24.3 °F 73% 29.87 in 7.0 mi West 25.3 mph 31.1 mph N/A Snow Light Snow
3:14 PM 32.0 °F 19.2 °F 25.5 °F 77% 29.88 in 7.0 mi West 23.0 mph 29.9 mph N/A Snow Light Snow
3:34 PM 32.0 °F 22.1 °F 25.9 °F 78% 29.89 in 5.0 mi West 13.8 mph 18.4 mph N/A Snow Light Snow
3:54 PM 32.9 °F 20.4 °F 23.2 °F 67% 29.90 in 10.0 mi West 23.0 mph 28.8 mph N/A   Overcast
4:15 PM 32.9 °F 20.7 °F 22.5 °F 65% 29.91 in 10.0 mi West 21.9 mph 26.5 mph N/A   Overcast
4:34 PM 32.9 °F 21.3 °F 22.3 °F 65% 29.92 in 10.0 mi West 19.6 mph 27.6 mph N/A   Overcast
4:55 PM 33.3 °F 22.8 °F 22.1 °F 64% 29.93 in 10.0 mi West 16.1 mph 28.8 mph N/A   Overcast
5:14 PM 33.1 °F 22.2 °F 22.5 °F 65% 29.94 in 10.0 mi West 17.3 mph 27.6 mph N/A   Overcast
5:34 PM 33.3 °F 20.6 °F 22.3 °F 64% 29.95 in 10.0 mi WNW 24.2 mph 29.9 mph N/A   Overcast
5:54 PM 33.3 °F 22.8 °F 22.1 °F 64% 29.96 in 10.0 mi West 16.1 mph 28.8 mph N/A   Overcast
6:14 PM 33.3 °F 21.2 °F 21.4 °F 62% 29.97 in 10.0 mi West 21.9 mph 31.1 mph N/A   Overcast
6:34 PM 33.3 °F 20.3 °F 21.2 °F 61% 29.98 in 10.0 mi West 25.3 mph 32.2 mph N/A   Overcast
6:55 PM 32.9 °F 20.1 °F 20.7 °F 61% 29.99 in 10.0 mi WNW 24.2 mph 36.8 mph N/A   Overcast
7:14 PM 32.9 °F 22.8 °F 21.0 °F 62% 30.00 in 10.0 mi WNW 15.0 mph 31.1 mph N/A   Overcast
7:34 PM 32.4 °F 20.9 °F 20.7 °F 62% 30.01 in 10.0 mi WNW 18.4 mph 27.6 mph N/A   Overcast
7:55 PM 32.0 °F 20.1 °F 20.3 °F 62% 30.02 in 10.0 mi WNW 19.6 mph 32.2 mph N/A   Overcast
8:14 PM 32.0 °F 19.5 °F 20.5 °F 63% 30.03 in 10.0 mi WNW 21.9 mph 29.9 mph N/A   Overcast
8:35 PM 31.6 °F 18.7 °F 19.6 °F 61% 30.03 in 10.0 mi WNW 23.0 mph 31.1 mph N/A   Overcast
8:54 PM 31.5 °F 20.5 °F 20.1 °F 63% 30.04 in 10.0 mi WNW 16.1 mph 27.6 mph N/A   Overcast
9:14 PM 31.6 °F 20.0 °F 20.3 °F 63% 30.04 in 10.0 mi WNW 18.4 mph 26.5 mph N/A   Overcast
9:34 PM 31.6 °F 21.2 °F 20.7 °F 64% 30.04 in 10.0 mi WNW 15.0 mph 26.5 mph N/A   Overcast
9:54 PM 31.6 °F 20.7 °F 20.3 °F 63% 30.04 in 10.0 mi WNW 16.1 mph 27.6 mph N/A   Overcast
10:14 PM 31.5 °F 19.8 °F 20.1 °F 63% 30.05 in 10.0 mi WNW 18.4 mph 29.9 mph N/A   Overcast
10:34 PM 31.1 °F 17.7 °F 20.1 °F 64% 30.05 in 10.0 mi WNW 24.2 mph 28.8 mph N/A   Overcast
10:55 PM 31.1 °F 21.4 °F 20.1 °F 64% 30.05 in 10.0 mi WNW 12.7 mph 26.5 mph N/A   Overcast
11:14 PM 31.1 °F 18.9 °F 20.3 °F 64% 30.05 in 10.0 mi WNW 19.6 mph 26.5 mph N/A   Overcast
11:35 PM 30.9 °F 20.2 °F 20.3 °F 65% 30.05 in 10.0 mi WNW 15.0 mph - N/A   Overcast
11:54 PM 30.9 °F 19.8 °F 20.3 °F 65% 30.05 in 10.0 mi WNW 16.1 mph 19.6 mph N/A   Overcast